Der Flugplatz Krefeld-Egelsberg
  • ICAO-Code: EDLK
  • Koordinaten: N 51° 23,10'    E 06° 35,26'
  • Höhe ü. NN: 141 ft / 43 m
  • Platzfrequenz: 120.675 MHz - Krefeld Info
  • Landebahn: 06 - 24
  • Abmessungen: 640 x 30m
  • Belag: Gras
  • Tragfähigkeit: 2000 kg MTW; HEL 5700 kg MTW
  • Tankstelle: Nein
  • Betriebszeit: PPR
  • PPR-Request: Tel: 02151/ 560133, 368400
  • Landegebühr: Private Flüge 5 €, für gewerbliche Flüge wird eine gesonderte Gebühr erhoben

 


EDLK

Wetterinformation

[Quelle: ADDS]
METAR
EDDL 141750Z 25019G30KT 9999 FEW022 07/01 Q0997 NOSIG =
EDDL 141700Z 1418/1524 23020G30KT 9999 SCT030 BECMG 1418/1421 23012KT BECMG 1421/1424 17011KT TEMPO 1502/1505 RA BECMG 1504/1506 25015G25KT TEMPO 1505/1509 23020G30KT SHRA BKN020TCU BECMG 1513/1516 23012KT BECMG 1516/1519 17009KT
TAF
EDDL 141700Z 1418/1524 23020G30KT 9999 SCT030 BECMG 1418/1421 23012KT BECMG 1421/1424 17011KT TEMPO 1502/1505 RA BECMG 1504/1506 25015G25KT TEMPO 1505/1509 23020G30KT SHRA BKN020TCU BECMG 1513/1516 23012KT BECMG 1516/1519 17009KT =
Lade Webcam-Bild
Cookies erleichtern die Bereitstellung unserer Dienste. Mit der Nutzung unserer Dienste erklären Sie sich damit einverstanden, dass wir Cookies verwenden.